N1SU-13 Weather Reports


Display with metric or nautical units.
time (UTC)temp
F
wind
direction
speed
MPH
gust
MPH
rain 1hr
in
rain 24hr
in
rain mn
in
humidity
%
barometer
mb
20260905103405 49 0.0 0.0 0.00 0.02 0.00 90 1016.1
20260905102244 49 0.0 0.0 0.00 0.02 0.00 89 1016.0
20260905101116 49 0.0 0.0 0.00 0.02 0.00 89 1015.9
20260905100126 49 0.0 0.0 0.00 0.02 0.00 89 1015.8
20260905095134 49 0.0 0.0 0.00 0.02 0.00 89 1015.8
20260905094115 50 0.0 0.0 0.00 0.02 0.00 89 1015.8
20260905093051 50 0.0 0.0 0.00 0.02 0.00 90 1015.9
20260905092011 50 0.0 0.0 0.00 0.02 0.00 90 1015.8
20260905091003 50 0.0 0.0 0.00 0.02 0.00 90 1015.8
20260905090032 50 0.0 0.0 0.00 0.02 0.00 90 1015.7
20260905084955 50 0.0 0.0 0.00 0.02 0.00 90 1015.7
20260905084017 50 0.0 0.0 0.00 0.02 0.00 90 1015.6
20260905083010 50 0.0 0.0 0.00 0.02 0.00 89 1015.7
20260905082006 51 0.0 0.0 0.00 0.02 0.00 89 1015.6
20260905080956 51 0.0 0.0 0.00 0.02 0.00 89 1015.5
20260905075950 51 0.0 0.0 0.00 0.02 0.00 88 1015.5
20260905074903 51 0.0 0.0 0.00 0.02 0.00 88 1015.6
20260905073840 51 0.0 0.0 0.00 0.02 0.00 87 1015.5
20260905072843 51 0.0 0.0 0.00 0.02 0.00 87 1015.5
20260905071716 51 0.0 0.0 0.00 0.02 0.00 87 1015.5
20260905070632 51 0.0 0.0 0.00 0.02 0.00 86 1015.4
20260905065652 52 0.0 0.0 0.00 0.02 0.00 85 1015.3
20260905064511 52 0.0 0.0 0.00 0.02 0.00 85 1015.1
20260905063502 52 0.0 0.0 0.00 0.02 0.00 85 1015.0
20260905062324 53 0.0 0.0 0.00 0.02 0.00 84 1014.9
20260905061253 53 0.0 0.0 0.00 0.02 0.00 84 1014.8
20260905060323 53 0.0 0.0 0.00 0.02 0.00 84 1014.7
20260905055322 53 0.0 0.0 0.00 0.03 0.00 86 1014.7
20260905054213 54 0.0 0.0 0.00 0.03 0.00 78 1014.6
20260905053228 54 0.0 0.0 0.00 0.03 0.00 78 1014.4
20260905052135 54 0.0 0.0 0.00 0.03 0.00 78 1014.5
20260905051109 54 0.0 0.0 0.00 0.03 0.00 78 1014.6
20260905050017 54 0.0 0.0 0.00 0.03 0.00 79 1014.6
20260905045041 54 0.0 0.0 0.00 0.03 0.00 79 1014.8
20260905043944 54 0.0 0.0 0.00 0.03 0.00 80 1014.8
20260905042811 54 0.0 0.0 0.00 0.03 0.00 80 1014.7
20260905041756 54 0.0 0.0 0.00 0.03 0.00 80 1014.9
20260905040650 54 0.0 0.0 0.00 0.03 0.00 82 1014.8
20260905035630 54 0.0 0.0 0.00 0.03 0.00 84 1014.8
20260905034639 55 0.0 0.0 0.00 0.03 0.00 84 1014.7
20260905033546 55 0.0 0.0 0.00 0.03 0.00 83 1014.7
20260905032551 55 0.0 0.0 0.00 0.03 0.00 82 1014.7
20260905031431 55 0.0 0.0 0.00 0.03 0.00 81 1014.5
20260905030508 55 0.0 0.0 0.00 0.03 0.00 81 1014.5
20260905025356 56 0.0 0.0 0.00 0.03 0.00 82 1014.4
20260905024335 56 0.0 0.0 0.00 0.03 0.00 82 1014.3
20260905023232 56 0.0 0.0 0.00 0.03 0.00 80 1014.2
20260905022313 56 0.0 0.0 0.00 0.03 0.00 79 1014.0
20260905021327 56 0.0 0.0 0.00 0.03 0.00 78 1014.1
20260905020316 56 0.0 0.0 0.00 0.03 0.00 79 1014.0
20260905015243 57 0.0 0.0 0.00 0.03 0.00 80 1014.0
20260905014141 57 0.0 0.0 0.00 0.03 0.00 79 1014.1
20260905013158 57 0.0 0.0 0.01 0.03 0.00 78 1014.0
20260905012159 58 0.0 0.0 0.01 0.03 0.00 78 1013.9
20260905011125 58 0.0 0.0 0.01 0.03 0.00 78 1013.7
20260905010152 59 0.0 0.0 0.01 0.03 0.00 81 1013.7
20260905005144 59 0.0 0.0 0.01 0.03 0.00 79 1013.6
20260905004115 60 0.0 0.0 0.01 0.03 0.00 77 1013.3
20260905003126 60 0.0 0.0 0.00 0.01 0.00 75 1013.2
20260905002052 61 0.0 0.0 0.00 0.01 0.00 75 1013.2
20260905001342 61 0.0 0.0 0.00 0.01 0.00 74 1013.2
20260905001002 61 0.0 0.0 0.00 0.01 0.00 73 1013.0
20260905000459 61 0.0 0.0 0.00 0.01 0.00 71 1012.9
20260905000036 61 0.0 0.0 0.00 0.01 0.00 70 1012.8
20260904235549 62 0.0 0.0 0.00 0.01 0.00 69 1012.9
20260904234924 62 0.0 0.0 0.00 0.01 0.00 67 1012.9
20260904233709 63 0.0 0.0 0.00 0.01 0.00 64 1012.8
20260904233429 63 0.0 0.0 0.00 0.01 0.00 64 1012.8
20260904232701 63 0.0 0.0 0.00 0.01 0.00 64 1012.7
20260904232529 64 0.0 0.0 0.00 0.01 0.00 65 1012.6
20260904232224 64 0.0 0.0 0.00 0.01 0.00 66 1012.7
20260904231941 64 0.0 0.0 0.00 0.01 0.00 66 1012.7
20260904231652 64 0.0 0.0 0.00 0.01 0.00 64 1012.5
20260904230714 64 0.0 0.0 0.00 0.01 0.00 64 1012.2
20260904225702 64 0.0 0.0 0.00 0.01 0.00 62 1012.1
20260904224637 65 0.0 0.0 0.00 0.01 0.00 61 1012.0
20260904223601 65 0.0 0.0 0.00 0.01 0.00 61 1012.0
20260904222612 65 0.0 0.0 0.00 0.01 0.00 60 1011.8
20260904221443 65 0.0 0.0 0.00 0.01 0.00 60 1011.7
20260904220337 66 0.0 0.0 0.00 0.01 0.00 59 1011.6
20260904220319 66 0.0 0.0 0.00 0.01 0.00 59 1011.6
20260904215201 66 0.0 0.0 0.00 0.01 0.00 57 1011.5
20260904214110 66 0.0 0.0 0.00 0.01 0.00 57 1011.5
20260904212952 66 0.0 0.0 0.00 0.01 0.00 56 1011.4
20260904211841 65 0.0 0.0 0.00 0.01 0.00 59 1011.4
20260904210716 65 0.0 0.0 0.00 0.01 0.00 59 1011.5
20260904205748 65 0.0 0.0 0.00 0.01 0.00 60 1011.6
20260904204638 64 0.0 0.0 0.00 0.01 0.00 61 1011.6
20260904203501 64 0.0 0.0 0.00 0.01 0.00 63 1011.6
20260904202400 63 0.0 0.0 0.00 0.01 0.00 65 1011.7
20260904201325 62 0.0 0.0 0.00 0.01 0.00 66 1011.8
20260904200150 62 0.0 0.0 0.00 0.01 0.00 68 1011.9
20260904195137 62 0.0 0.0 0.00 0.01 0.00 67 1011.8
20260904194053 62 0.0 0.0 0.00 0.01 0.00 68 1012.0
20260904192934 61 0.0 0.0 0.00 0.01 0.00 70 1012.1
20260904191805 60 0.0 0.0 0.00 0.01 0.00 71 1012.1
20260904190641 60 0.0 0.0 0.00 0.01 0.00 72 1012.3
20260904185704 59 0.0 0.0 0.00 0.01 0.00 72 1012.2
20260904184737 58 0.0 0.0 0.00 0.01 0.00 75 1012.2
20260904183743 58 0.0 0.0 0.00 0.01 0.00 75 1012.2
20260904182801 58 0.0 0.0 0.00 0.01 0.00 75 1012.3
20260904181624 57 0.0 0.0 0.00 0.01 0.00 77 1012.1
20260904180552 56 0.0 0.0 0.00 0.01 0.00 80 1012.3
20260904175626 55 0.0 0.0 0.00 0.01 0.00 82 1012.5
20260904174524 55 0.0 0.0 0.00 0.01 0.00 83 1012.5
20260904173410 54 0.0 0.0 0.00 0.01 0.00 87 1012.5
20260904172357 53 0.0 0.0 0.00 0.01 0.00 86 1012.5
20260904171411 53 0.0 0.0 0.00 0.01 0.00 87 1012.5
20260904170233 53 0.0 0.0 0.00 0.01 0.00 88 1012.6
20260904165132 53 0.0 0.0 0.00 0.01 0.00 89 1012.6
20260904163952 53 0.0 0.0 0.00 0.01 0.00 88 1012.5
20260904162841 53 0.0 0.0 0.00 0.01 0.00 90 1012.6
20260904161854 53 0.0 0.0 0.00 0.01 0.00 91 1012.6
20260904160845 52 0.0 0.0 0.00 0.01 0.00 91 1012.5
20260904155850 52 0.0 0.0 0.00 0.01 0.00 90 1012.7
20260904154753 52 0.0 0.0 0.00 0.01 0.00 89 1012.5
20260904153731 52 0.0 0.0 0.00 0.01 0.00 90 1012.3
20260904152645 52 0.0 0.0 0.00 0.01 0.00 91 1012.3
20260904151533 51 0.0 0.0 0.00 0.01 0.00 92 1012.2
20260904150434 51 0.0 0.0 0.00 0.01 0.00 92 1012.1
20260904145509 51 0.0 0.0 0.00 0.01 0.00 92 1011.9
20260904144446 51 0.0 0.0 0.00 0.01 0.00 92 1011.7
20260904143522 51 0.0 0.0 0.00 0.02 0.00 93 1011.6
20260904142506 50 0.0 0.0 0.00 0.02 0.00 93 1011.6
20260904141444 50 0.0 0.0 0.00 0.02 0.00 93 1011.6
20260904140451 50 0.0 0.0 0.00 0.02 0.00 93 1011.7
20260904135430 50 0.0 0.0 0.00 0.02 0.00 93 1011.5
20260904134338 49 0.0 0.0 0.00 0.03 0.00 93 1011.4
20260904133343 49 0.0 0.0 0.00 0.04 0.00 92 1011.2
20260904132352 49 0.0 0.0 0.00 0.04 0.00 92 1011.2
20260904131328 49 0.0 0.0 0.00 0.04 0.00 92 1011.1
20260904130251 49 0.0 0.0 0.00 0.04 0.00 92 1011.1
20260904125310 49 0.0 0.0 0.00 0.05 0.00 92 1011.0
20260904124146 49 0.0 0.0 0.00 0.05 0.00 92 1010.8
20260904123051 49 0.0 0.0 0.00 0.05 0.00 91 1010.7
20260904122107 49 0.0 0.0 0.00 0.05 0.00 92 1010.7
20260904121030 49 0.0 0.0 0.00 0.05 0.00 92 1010.7
20260904120055 49 0.0 0.0 0.00 0.05 0.00 92 1010.6
20260904115116 49 0.0 0.0 0.00 0.05 0.00 92 1010.4
20260904113942 50 0.0 0.0 0.00 0.05 0.00 91 1010.5
20260904112933 50 0.0 0.0 0.00 0.05 0.00 91 1010.4
20260904111840 50 0.0 0.0 0.00 0.05 0.00 91 1010.2
20260904110834 50 0.0 0.0 0.00 0.07 0.00 91 1010.2
20260904105752 50 0.0 0.0 0.00 0.07 0.00 91 1010.2
20260904104646 51 0.0 0.0 0.00 0.07 0.00 91 1010.1